Terminal Aerodrome Forecast
Issued by NWS

Home | Current Version | Previous Version | Text Only | Print | Product List | Glossary On
Versions: 1 2 3 4 5 6 7 8 9 10 11 12 13 14 15 16 17 18 19 20 21 22 23 24 25 26 27 28 29 30 31 32 33
609
FTUS41 KOKX 230637 AAB
TAFGON
TAF AMD
KGON 230637Z 2307/2406 VRB02KT 1/4SM FG OVC002
      TEMPO 2313/2315 VRB02KT 1/2SM FG OVC002
     FM231500 21005KT 2SM BR OVC010
     FM231800 22006KT P6SM BKN010 OVC020
     FM232300 22005KT 3SM BR OVC008
     FM240400 VRB02KT 1/2SM FG OVC003=

USA.gov is the U.S. government's official web portal to all federal, state and local government web resources and services.